Los Angeles, CA

6:55 PM PDT on April 23, 2018 (GMT -0700)
Los Angeles International

Weather History for KLAX - April, 2014

Change the Weather History Date:

Sunday, April 6, 2014

  Actual Average Record
Temperature  
Mean Temperature 62 °F 59 °F  
Max Temperature 71 °F 66 °F 102 °F (1989)
Min Temperature 52 °F 53 °F 44 °F (1964)
Degree Days  
Heating Degree Days 3 6  
Month to date heating degree days 41 37  
Since 1 July heating degree days 686 1187  
Cooling Degree Days 0 0  
Month to date cooling degree days 0 0  
Year to date cooling degree days 35 15  
Growing Degree Days 12 (Base 50)    
Moisture  
Dew Point 47 °F    
Average Humidity 60    
Maximum Humidity 83    
Minimum Humidity 37    
Precipitation  
Precipitation 0.00 in 0.03 in 0.87 in (1984)
Month to date precipitation 0.17 0.20  
Year to date precipitation 3.32 8.01  
Since 1 July precipitation 4.36  
Sea Level Pressure  
Sea Level Pressure 30.06 in    
Wind  
Wind Speed 8 mph (South)    
Max Wind Speed 22 mph    
Max Gust Speed 26 mph    
Visibility 10 miles    
Events      
T = Trace of Precipitation, MM = Missing Value Source: NWS Daily Summary

Daily Weather History Graph

Daily Weather History Graph

Search for Another Location

Airport or City:

Astronomy

Apr. 06, 2014 Rise Set
Actual Time 6:34 AM PDT 7:18 PM PDT
Civil Twilight 6:08 AM PDT 7:43 PM PDT
Nautical Twilight 5:39 AM PDT 8:13 PM PDT
Astronomical Twilight 5:08 AM PDT 8:44 PM PDT
Moon 11:48 AM PDT (4/6) 1:08 AM PDT (4/6)
Length of Visible Light 13h 34m
Length of Day
12h 43m
Waxing Crescent, 45% of the Moon is Illuminated
Apr 6
Waxing Crescent
Apr 7
First Quarter
Apr 15
Full
Apr 22
Last Quarter
Apr 28
New

Hourly Weather History & Observations

Time (PDT) Temp. Dew Point Humidity Pressure Visibility Wind Dir Wind Speed Gust Speed Precip Events Conditions
12:53 AM 57.0 °F 50.0 °F 77% 30.06 in 10.0 mi East 3.5 mph - N/A   Clear
1:53 AM 55.9 °F 50.0 °F 80% 30.06 in 10.0 mi East 3.5 mph - N/A   Clear
2:53 AM 55.0 °F 50.0 °F 83% 30.06 in 10.0 mi Calm Calm - N/A   Clear
3:53 AM 55.0 °F 50.0 °F 83% 30.06 in 10.0 mi East 3.5 mph - N/A   Clear
4:53 AM 54.0 °F 48.9 °F 83% 30.06 in 10.0 mi East 3.5 mph - N/A   Clear
5:53 AM 53.1 °F 48.0 °F 83% 30.06 in 10.0 mi East 4.6 mph - N/A   Clear
6:53 AM 53.1 °F 46.0 °F 77% 30.07 in 10.0 mi East 4.6 mph - N/A   Clear
7:53 AM 57.9 °F 45.0 °F 62% 30.09 in 10.0 mi East 5.8 mph - N/A   Clear
8:53 AM 63.0 °F 44.1 °F 50% 30.10 in 10.0 mi East 4.6 mph - N/A   Clear
9:53 AM 69.1 °F 43.0 °F 39% 30.10 in 10.0 mi Calm Calm - N/A   Clear
10:53 AM 66.9 °F 48.9 °F 52% 30.10 in 10.0 mi West 10.4 mph - N/A   Clear
11:53 AM 66.9 °F 48.0 °F 51% 30.09 in 10.0 mi West 10.4 mph - N/A   Clear
12:53 PM 68.0 °F 48.0 °F 49% 30.09 in 10.0 mi West 15.0 mph - N/A   Clear
1:53 PM 70.0 °F 42.1 °F 36% 30.06 in 10.0 mi West 16.1 mph 23.0 mph N/A   Clear
2:53 PM 69.1 °F 46.0 °F 44% 30.05 in 10.0 mi West 18.4 mph - N/A   Clear
3:53 PM 68.0 °F 46.9 °F 47% 30.03 in 10.0 mi West 20.7 mph - N/A   Clear
4:53 PM 68.0 °F 46.0 °F 45% 30.01 in 10.0 mi West 16.1 mph - N/A   Clear
5:53 PM 68.0 °F 44.1 °F 42% 30.00 in 10.0 mi WSW 17.3 mph 26.5 mph N/A   Clear
6:53 PM 66.9 °F 45.0 °F 45% 30.01 in 10.0 mi West 15.0 mph - N/A   Clear
7:53 PM 66.0 °F 46.0 °F 48% 30.01 in 10.0 mi SW 5.8 mph - N/A   Clear
8:53 PM 66.9 °F 45.0 °F 45% 30.02 in 10.0 mi SSE 3.5 mph - N/A   Clear
9:53 PM 64.9 °F 46.0 °F 50% 30.04 in 10.0 mi Calm Calm - N/A   Clear
10:53 PM 64.0 °F 46.0 °F 52% 30.05 in 10.0 mi Calm Calm - N/A   Clear
11:53 PM 63.0 °F 46.0 °F 54% 30.05 in 10.0 mi ESE 4.6 mph - N/A   Clear